This demonstration page uses our WeatherBlox Daily Observations layout. Learn more.

38.89511, -77.03637

Hourly Observations for December 5, 2018

Temp ( °F °C ) Dew Point ( °F °C ) Humidity (%) Winds ( mph kmh ) Pressure ( in mb ) Visibility ( mi km ) Precip ( " mm )
12:52 am 00:52 Cloudy 36 2.2 22 -5.6 57 57 NNW 6 9 30.06 1018 10 16.09344 0 0
1:52 am 01:52 Cloudy 36 2.2 23 -5 59 59 NNE 5 7 30.06 1018 10 16.09344 0 0
2:52 am 02:52 Cloudy 36 2.2 23 -5 59 59 NNE 8 13 30.06 1018 10 16.09344 0 0
3:52 am 03:52 Mostly Cloudy 35 1.7 23 -5 61 61 ENE 7 11 30.06 1018 10 16.09344 0 0
4:52 am 04:52 Mostly Cloudy 34 1.1 21 -6.1 59 59 NNE 8 13 30.06 1018 10 16.09344 0 0
5:52 am 05:52 Cloudy 34 1.1 22 -5.6 61 61 NE 7 11 30.06 1018 10 16.09344 0 0
6:52 am 06:52 Mostly Cloudy 34 1.1 22 -5.6 61 61 NE 7 11 30.06 1018 10 16.09344 0 0
7:52 am 07:52 Mostly Cloudy 34 1.1 22 -5.6 61 61 NE 8 13 30.09 1019 10 16.09344 0 0
8:52 am 08:52 Cloudy 34 1.1 21 -6.1 59 59 NE 8 13 30.09 1019 10 16.09344 0 0
9:52 am 09:52 Cloudy 35 1.7 21 -6.1 57 57 ENE 5 7 30.09 1019 10 16.09344 0 0
10:52 am 10:52 Cloudy 37 2.8 22 -5.6 54 54 NE 5 7 30.09 1019 10 16.09344 0 0
11:52 am 11:52 Cloudy 38 3.3 21 -6.1 51 51 N 7 11 30.09 1019 10 16.09344 0 0
12:52 pm 12:52 Cloudy 38 3.3 22 -5.6 52 52 NNW 8 13 30.06 1018 10 16.09344 0 0
1:52 pm 13:52 Cloudy 39 3.9 22 -5.6 50 50 N 10 17 30.06 1018 10 16.09344 0 0
2:52 pm 14:52 Cloudy 40 4.4 21 -6.1 47 47 NW 9 15 30.06 1018 10 16.09344 0 0
3:52 pm 15:52 Mostly Cloudy 39 3.9 21 -6.1 48 48 NNW 10 17 30.09 1019 10 16.09344 0 0
4:52 pm 16:52 Mostly Cloudy 38 3.3 23 -5 55 55 NW 7 11 30.12 1020 10 16.09344 0 0
5:52 pm 17:52 Partly Cloudy 38 3.3 23 -5 55 55 NNW 8 13 30.12 1020 10 16.09344 0 0
6:52 pm 18:52 Cloudy 37 2.8 23 -5 57 57 NNW 6 9 30.15 1021 10 16.09344 0 0
7:52 pm 19:52 Partly Cloudy 36 2.2 24 -4.4 62 62 W 7 11 30.18 1022 10 16.09344 0 0
8:52 pm 20:52 Partly Cloudy 35 1.7 24 -4.4 64 64 W 5 7 30.18 1022 10 16.09344 0 0
9:52 pm 21:52 Partly Cloudy 35 1.7 25 -3.9 67 67 WNW 5 7 30.21 1023 10 16.09344 0 0
10:52 pm 22:52 Mostly Clear 34 1.1 25 -3.9 70 70 W 5 7 30.21 1023 10 16.09344 0 0
11:52 pm 23:52 Partly Cloudy 34 1.1 23 -5 64 64 WNW 7 11 30.24 1024 10 16.09344 0 0

Powered by AerisWeather